Weather History for KCLK - April, 2014

Change the Weather History Date:

Friday, April 4, 2014

  Actual Average (KCSM) Record (KCSM)
Temperature  
Mean Temperature 46 °F -  
Max Temperature 62 °F 65 °F 82 °F (2001)
Min Temperature 30 °F 42 °F 30 °F (1998)
Degree Days  
Heating Degree Days 19    
Moisture  
Dew Point 24 °F    
Average Humidity 49    
Maximum Humidity 93    
Minimum Humidity 14    
Precipitation  
Precipitation 0.00 in - - ()
Sea Level Pressure  
Sea Level Pressure 30.13 in    
Wind  
Wind Speed 8 mph (North)    
Max Wind Speed 17 mph    
Max Gust Speed 22 mph    
Visibility 10 miles    
Events      
Averages and records for this station are not official NWS values.
T = Trace of Precipitation, MM = Missing Value Source: NWS Daily Summary

Daily Weather History Graph

Daily Weather History Graph

Search for Another Location

Airport or City:

Trip Planner

Search our weather history database for the weather conditions in past years. The results will help you decide how hot, cold, wet, or windy it might be!

Date:

Astronomy

Apr. 04, 2014 Rise Set
Actual Time 7:18 AM CDT 7:59 PM CDT
Civil Twilight 6:52 AM CDT 8:25 PM CDT
Nautical Twilight 6:21 AM CDT 8:56 PM CDT
Astronomical Twilight 5:50 AM CDT 9:27 PM CDT
Moon 10:43 AM CDT (4/4) 12:12 AM CDT (4/4)
Length of Visible Light 13h 33m
Length of Day
12h 41m
Waxing Crescent, 25% of the Moon is Illuminated
Apr 4
Waxing Crescent
Apr 7
First Quarter
Apr 15
Full
Apr 22
Last Quarter
Apr 29
New

Hourly Weather History & Observations

Time (CDT) Temp. Windchill Dew Point Humidity Pressure Visibility Wind Dir Wind Speed Gust Speed Precip Events Conditions
12:15 AM 41.0 °F 35.2 °F 32.0 °F 70% 30.06 in 10.0 mi NNW 9.2 mph - N/A   Clear
12:35 AM 41.0 °F 34.7 °F 32.0 °F 70% 30.07 in 10.0 mi NNW 10.4 mph - N/A   Clear
12:55 AM 39.2 °F 32.0 °F 32.0 °F 75% 30.08 in 10.0 mi NNW 11.5 mph - N/A   Clear
1:15 AM 39.2 °F 31.6 °F 32.0 °F 75% 30.08 in 10.0 mi NNW 12.7 mph - N/A   Clear
1:35 AM 39.2 °F 32.5 °F 32.0 °F 75% 30.09 in 10.0 mi NNW 10.4 mph 17.3 mph N/A   Clear
1:55 AM 39.2 °F 33.6 °F 32.0 °F 75% 30.10 in 10.0 mi NNW 8.1 mph - N/A   Clear
2:15 AM 37.4 °F 32.1 °F 32.0 °F 81% 30.10 in 10.0 mi NNW 6.9 mph - N/A   Clear
2:35 AM 35.6 °F 31.7 °F 30.2 °F 81% 30.11 in 10.0 mi NW 4.6 mph - N/A   Clear
2:55 AM 35.6 °F 32.8 °F 30.2 °F 81% 30.11 in 10.0 mi NW 3.5 mph - N/A   Clear
3:15 AM 33.8 °F 28.6 °F 28.4 °F 81% 30.11 in 10.0 mi NW 5.8 mph - N/A   Clear
3:35 AM 33.8 °F 30.8 °F 30.2 °F 87% 30.12 in 10.0 mi NW 3.5 mph - N/A   Clear
3:55 AM 33.8 °F 29.6 °F 30.2 °F 87% 30.12 in 10.0 mi WNW 4.6 mph - N/A   Clear
4:15 AM 35.6 °F 29.9 °F 30.2 °F 81% 30.12 in 10.0 mi WNW 6.9 mph - N/A   Clear
4:35 AM 33.8 °F 26.4 °F 30.2 °F 87% 30.11 in 10.0 mi NNW 9.2 mph - N/A   Clear
4:55 AM 33.8 °F 27.7 °F 30.2 °F 87% 30.11 in 10.0 mi NNW 6.9 mph - N/A   Clear
5:15 AM 32.0 °F 25.6 °F 28.4 °F 87% 30.11 in 10.0 mi NNW 6.9 mph - N/A   Clear
5:35 AM 32.0 °F 27.5 °F 28.4 °F 87% 30.11 in 10.0 mi North 4.6 mph - N/A   Clear
5:55 AM 32.0 °F 24.8 °F 28.4 °F 87% 30.12 in 10.0 mi NNW 8.1 mph - N/A   Clear
6:15 AM 32.0 °F 27.5 °F 28.4 °F 87% 30.12 in 10.0 mi NW 4.6 mph - N/A   Clear
6:35 AM 32.0 °F 26.4 °F 28.4 °F 87% 30.12 in 10.0 mi NW 5.8 mph - N/A   Clear
6:55 AM 32.0 °F 26.4 °F 28.4 °F 87% 30.13 in 10.0 mi NW 5.8 mph - N/A   Clear
7:15 AM 33.8 °F 30.8 °F 28.4 °F 81% 30.14 in 10.0 mi WNW 3.5 mph - N/A   Clear
7:35 AM 32.0 °F 26.4 °F 26.6 °F 80% 30.15 in 10.0 mi NW 5.8 mph - N/A   Clear
7:55 AM 30.2 °F 24.3 °F 26.6 °F 86% 30.16 in 10.0 mi NNW 5.8 mph - N/A   Clear
8:15 AM 32.0 °F 25.6 °F 30.2 °F 93% 30.17 in 10.0 mi NNW 6.9 mph - N/A   Clear
8:35 AM 33.8 °F 27.7 °F 30.2 °F 87% 30.18 in 10.0 mi NNW 6.9 mph - N/A   Clear
8:55 AM 35.6 °F 29.9 °F 32.0 °F 87% 30.18 in 10.0 mi NNW 6.9 mph - N/A   Clear
9:15 AM 39.2 °F 33.0 °F 32.0 °F 75% 30.18 in 10.0 mi NNW 9.2 mph - N/A   Clear
9:35 AM 42.8 °F 36.2 °F 30.2 °F 61% 30.18 in 10.0 mi North 12.7 mph - N/A   Clear
9:55 AM 44.6 °F 38.1 °F 26.6 °F 49% 30.19 in 10.0 mi North 13.8 mph 18.4 mph N/A   Clear
10:15 AM 46.4 °F 39.5 °F 23.0 °F 40% 30.19 in 10.0 mi North 17.3 mph 21.9 mph N/A   Clear
10:35 AM 50.0 °F - 21.2 °F 32% 30.20 in 10.0 mi North 16.1 mph - N/A   Clear
10:55 AM 50.0 °F - 23.0 °F 35% 30.21 in 10.0 mi North 11.5 mph - N/A   Clear
11:15 AM 51.8 °F - 21.2 °F 30% 30.21 in 10.0 mi North 13.8 mph 19.6 mph N/A   Clear
11:35 AM 51.8 °F - 23.0 °F 33% 30.22 in 10.0 mi NNW 8.1 mph 17.3 mph N/A   Clear
11:55 AM 51.8 °F - 23.0 °F 33% 30.22 in 10.0 mi North 11.5 mph - N/A   Clear
12:15 PM 53.6 °F - 23.0 °F 30% 30.22 in 10.0 mi North 10.4 mph 16.1 mph N/A   Clear
12:35 PM 55.4 °F - 23.0 °F 29% 30.21 in 10.0 mi North 10.4 mph 18.4 mph N/A   Clear
12:55 PM 55.4 °F - 21.2 °F 26% 30.20 in 10.0 mi North 10.4 mph 17.3 mph N/A   Clear
1:15 PM 57.2 °F - 19.4 °F 23% 30.20 in 10.0 mi North 11.5 mph 17.3 mph N/A   Clear
1:35 PM 57.2 °F - 17.6 °F 21% 30.18 in 10.0 mi NW 12.7 mph - N/A   Clear
1:55 PM 59.0 °F - 17.6 °F 20% 30.18 in 10.0 mi North 4.6 mph 18.4 mph N/A   Clear
2:15 PM 59.0 °F - 17.6 °F 20% 30.17 in 10.0 mi North 8.1 mph 18.4 mph N/A   Clear
2:35 PM 60.8 °F - 17.6 °F 19% 30.16 in 10.0 mi North 10.4 mph 17.3 mph N/A   Clear
3:15 PM 60.8 °F - 15.8 °F 17% 30.14 in 10.0 mi NNE 5.8 mph 17.3 mph N/A   Clear
3:35 PM 60.8 °F - 14.0 °F 16% 30.14 in 10.0 mi NNW 5.8 mph 17.3 mph N/A   Clear
3:55 PM 60.8 °F - 14.0 °F 16% 30.12 in 10.0 mi NNE 11.5 mph - N/A   Clear
4:15 PM 62.6 °F - 14.0 °F 15% 30.12 in 10.0 mi North 6.9 mph - N/A   Clear
4:35 PM 62.6 °F - 14.0 °F 15% 30.12 in 10.0 mi NNW 8.1 mph 17.3 mph N/A   Clear
4:55 PM 62.6 °F - 14.0 °F 15% 30.11 in 10.0 mi North 12.7 mph - N/A   Clear
5:15 PM 62.6 °F - 14.0 °F 15% 30.10 in 10.0 mi NW 5.8 mph - N/A   Clear
5:35 PM 62.6 °F - 12.2 °F 14% 30.10 in 10.0 mi Calm Calm - N/A   Clear
5:55 PM 62.6 °F - 12.2 °F 14% 30.10 in 10.0 mi Calm Calm - N/A   Clear
6:15 PM 62.6 °F - 14.0 °F 15% 30.09 in 10.0 mi East 4.6 mph - N/A   Clear
6:35 PM 62.6 °F - 14.0 °F 15% 30.09 in 10.0 mi NW 6.9 mph - N/A   Clear
6:55 PM 60.8 °F - 14.0 °F 16% 30.09 in 10.0 mi NE 4.6 mph - N/A   Clear
7:15 PM 60.8 °F - 14.0 °F 16% 30.08 in 10.0 mi East 3.5 mph - N/A   Clear
7:35 PM 60.8 °F - 15.8 °F 17% 30.09 in 10.0 mi ENE 5.8 mph - N/A   Clear
7:55 PM 57.2 °F - 17.6 °F 21% 30.09 in 10.0 mi East 5.8 mph - N/A   Clear
8:15 PM 53.6 °F - 21.2 °F 28% 30.09 in 10.0 mi East 8.1 mph - N/A   Clear
8:35 PM 51.8 °F - 23.0 °F 33% 30.09 in 10.0 mi East 8.1 mph - N/A   Clear
8:55 PM 50.0 °F - 23.0 °F 35% 30.09 in 10.0 mi East 8.1 mph - N/A   Scattered Clouds
9:15 PM 50.0 °F - 23.0 °F 35% 30.10 in 10.0 mi East 9.2 mph - N/A   Scattered Clouds
9:35 PM 50.0 °F - 23.0 °F 35% 30.11 in 10.0 mi East 8.1 mph - N/A   Clear
9:55 PM 48.2 °F - 23.0 °F 37% 30.12 in 10.0 mi East 9.2 mph - N/A   Clear
10:15 PM 46.4 °F 41.9 °F 23.0 °F 40% 30.12 in 10.0 mi East 9.2 mph - N/A   Clear
10:35 PM 46.4 °F 42.9 °F 23.0 °F 40% 30.13 in 10.0 mi East 6.9 mph - N/A   Clear
10:55 PM 44.6 °F 40.2 °F 23.0 °F 43% 30.12 in 10.0 mi East 8.1 mph - N/A   Clear
11:15 PM 44.6 °F 40.7 °F 23.0 °F 43% 30.13 in 10.0 mi East 6.9 mph - N/A   Clear
11:35 PM 44.6 °F 42.2 °F 23.0 °F 43% 30.13 in 10.0 mi East 4.6 mph - N/A   Clear
11:55 PM 44.6 °F - 21.2 °F 39% 30.13 in 10.0 mi Calm Calm - N/A   Clear